Change the Weather History Date:

Sunday, August 24, 2014

  Actual Average Record
Temperature  
Mean Temperature 89 °F -  
Max Temperature 100 °F 92 °F 108 °F (2011)
Min Temperature 78 °F 67 °F 54 °F (1961)
Cooling Degree Days 24    
Growing Degree Days 39 (Base 50)    
Moisture  
Dew Point 63 °F    
Average Humidity 44    
Maximum Humidity 62    
Minimum Humidity 26    
Precipitation  
Precipitation 0.00 in - - ()
Sea Level Pressure  
Sea Level Pressure 29.83 in    
Wind  
Wind Speed 10 mph (South)    
Max Wind Speed 15 mph    
Max Gust Speed 23 mph    
Visibility 10 miles    
Events      
Averages and records for this station are not official NWS values.
T = Trace of Precipitation, MM = Missing Value Source: NWS Daily Summary

Daily Weather History Graph

Daily Weather History Graph

Search for Another Location

Airport or City:

Trip Planner

Search our weather history database for the weather conditions in past years. The results will help you decide how hot, cold, wet, or windy it might be!

Date:

Astronomy

Aug. 24, 2014 Rise Set
Actual Time 6:53 AM CDT 8:07 PM CDT
Civil Twilight 6:26 AM CDT 8:34 PM CDT
Nautical Twilight 5:53 AM CDT 9:06 PM CDT
Astronomical Twilight 5:20 AM CDT 9:40 PM CDT
Moon 6:04 AM CDT (8/24) 7:27 PM CDT (8/24)
Length of Visible Light 14h 08m
Length of Day
13h 14m
Waning Crescent, 1% of the Moon is Illuminated
Aug 24
Waning Crescent
Aug 25
New
Sep 2
First Quarter
Sep 8
Full
Sep 15
Last Quarter

Hourly Weather History & Observations

Time (CDT) Temp. Heat Index Dew Point Humidity Pressure Visibility Wind Dir Wind Speed Gust Speed Precip Events Conditions
12:53 AM 84.0 °F 83.8 °F 59.0 °F 43% 29.83 in 10.0 mi SSE 10.4 mph - N/A   Clear
1:53 AM 82.0 °F 82.1 °F 59.0 °F 45% 29.83 in 10.0 mi SSE 11.5 mph - N/A   Clear
2:53 AM 82.0 °F 82.7 °F 61.0 °F 49% 29.83 in 10.0 mi South 10.4 mph 20.7 mph N/A   Clear
3:53 AM 80.1 °F 81.2 °F 62.1 °F 54% 29.82 in 10.0 mi South 9.2 mph 17.3 mph N/A   Clear
4:53 AM 79.0 °F - 63.0 °F 58% 29.82 in 10.0 mi South 8.1 mph - N/A   Clear
5:53 AM 78.1 °F - 64.0 °F 62% 29.83 in 10.0 mi South 6.9 mph - N/A   Clear
6:53 AM 78.1 °F - 64.0 °F 62% 29.84 in 10.0 mi South 8.1 mph - N/A   Clear
7:53 AM 79.0 °F - 64.9 °F 62% 29.85 in 10.0 mi South 8.1 mph - N/A   Clear
8:53 AM 81.0 °F 83.0 °F 66.0 °F 60% 29.85 in 10.0 mi South 9.2 mph - N/A   Clear
9:53 AM 86.0 °F 88.8 °F 66.9 °F 53% 29.86 in 10.0 mi South 9.2 mph - N/A   Clear
10:53 AM 91.0 °F 93.8 °F 66.0 °F 44% 29.86 in 10.0 mi South 9.2 mph - N/A   Clear
11:53 AM 93.9 °F 97.0 °F 66.0 °F 40% 29.86 in 10.0 mi SSW 11.5 mph 19.6 mph N/A   Clear
12:53 PM 96.1 °F 98.8 °F 64.9 °F 36% 29.85 in 10.0 mi SSW 12.7 mph 19.6 mph N/A   Clear
1:53 PM 98.1 °F 100.7 °F 64.0 °F 33% 29.83 in 10.0 mi SSW 12.7 mph 19.6 mph N/A   Clear
2:53 PM 99.0 °F 99.5 °F 61.0 °F 28% 29.81 in 10.0 mi South 9.2 mph 17.3 mph N/A   Clear
3:53 PM 100.0 °F 100.7 °F 60.1 °F 27% 29.80 in 10.0 mi South 10.4 mph 23.0 mph N/A   Clear
4:53 PM 100.0 °F 100.2 °F 59.0 °F 26% 29.79 in 10.0 mi SSW 10.4 mph 18.4 mph N/A   Clear
5:53 PM 99.0 °F 98.6 °F 59.0 °F 26% 29.78 in 10.0 mi SSW 9.2 mph 18.4 mph N/A   Clear
6:53 PM 97.0 °F 97.4 °F 61.0 °F 30% 29.78 in 10.0 mi South 9.2 mph 21.9 mph N/A   Clear
7:53 PM 93.9 °F 94.8 °F 62.1 °F 35% 29.79 in 10.0 mi South 8.1 mph - N/A   Clear
8:53 PM 91.4 °F 93.2 °F 64.4 °F 41% 29.85 in 10.0 mi SSE 15.0 mph - N/A   Clear
9:53 PM 89.1 °F 91.0 °F 64.9 °F 45% 29.84 in 10.0 mi SSE 13.8 mph - N/A   Clear
10:53 PM 87.1 °F 88.9 °F 64.9 °F 48% 29.86 in 10.0 mi SSE 15.0 mph - N/A   Clear